SCP
0 0 0 0 0 1 1 0 0 0 0 0 0 0 0 0 0 0 0 0 0 0 0 0 0 0 0 0 0 0 0 0 0 0 0 0 0 0 0 0 0 0 0
0 -0 0 0 0 0 1 0 0 0 0 0 0 0 0 0 0 0 0 0 0 0 0 0 0 0 0 0 0 0 0 0 0 0 0 0 0 0 0 0 0 0 0
0 0 -0 0 0 0 0 0 0 0 0 0 0 0 0 0 0 0 0 0 0 0 0 0 0 0 0 0 0 0 0 0 0 0 0 0 0 0 0 0 0 0 0
0 0 -0 -0 0 0 0 0 0 0 0 0 0 0 0 0 0 0 0 0 0 0 0 0 0 0 0 0 0 0 0 0 0 0 0 0 0 -0 0 0 0 -0 0
0 0 0 0 -0 0 0 0 0 0 0 0 0 0 0 0 0 0 0 0 0 0 0 0 0 0 0 0 0 0 0 0 0 0 -0 -0 0 0 0 0 0 0 0
0 0 0 0 -0 -0 0 0 0 0 0 0 0 0 0 0 0 0 0 0 0 0 0 0 0 0 0 0 0 0 0 0 0 0 0 0 0 0 0 0 0 0 0
0 0 0 0 0 -0 0 0 0 0 0 0 0 0 0 0 0 0 0 0 0 0 0 0 0 0 0 0 0 0 0 0 0 0 0 0 0 0 0 0 0 0 0
0 0 0 0 0 0 0 0 0 0 0 0 0 0 0 0 0 0 0 0 0 0 0 0 0 0 -0 -0 -0 -0 0 0 0 0 0 0 0 0 0 0 0 0 0
0 0 0 0 0 0 0 0 0 0 0 0 0 0 0 0 0 0 0 0 -0 0 -0 -0 -0 -0 -0 -0 -0 -0 0 0 0 0 0 0 0 0 0 0 0 0 0
-0 0 -0 -0 0 0 0 0 0 0 0 0 0 0 0 0 0 0 -0 -0 -0 -0 0 0 0 0 0 0 -0 -0 -0 -0 0 -0 -0 -0 -0 -0 -0 0 -0 -0 0
0 -0 0 0 0 0 0 0 0 0 0 -0 0 -0 0 -0 -0 -0 0 -0 -0 0 0 0 -0 0 -0 0 -0 -0 0 0 0 -0 -0 -0 0 -0 -0 -0 -0 0 0
-0 -0 -0 -0 0 0 0 -0 -0 -0 -0 -0 0 0 0 0 0 0 0 -0 -0 -0 -0 -0 -0 -0 -0 0 0 0 -0 -0 -0 0 -0 -0 -0 -0 -0 0 0 0 0
-0 -0 -0 -0 0 -0 -0 0 -0 0 0 0 0 0 0 -0 -0 -0 -0 0 0 0 -0 -0 -0 0 0 0 -0 -0 -0 0 0 0 -0 -0 -0 0 0 0 0 0 0
-0 -0 -0 -0 0 0 0 -0 -0 0 0 0 0 -0 -0 -0 -0 -0 -0 -0 -0 -0 -0 -0 -0 -0 -0 -0 -0 -0 -0 -0 -0 -0 -0 -0 0 0 0 0 0 0 0
-0 -0 -0 -0 0 0 0 0 0 0 0 0 0 0 0 0 0 0 0 0 -0 -0 -0 0 0 0 0 -0 -0 -0 -0 -0 -0 -0 -0 0 0 0 0 0 0 0 0
0 -0 -0 -0 0 0 -0 0 0 0 0 0 0 0 0 0 0 -0 -0 -0 -0 -0 -0 -0 0 -0 -0 -0 -0 -0 -0 0 0 -0 0 0 0 0 0 0 0 0 0
0 0 -0 -0 0 0 0 0 0 0 0 0 0 0 0 0 0 0 0 0 -0 -0 -0 -0 0 -0 -0 -0 -0 -0 0 -0 -0 0 0 0 0 0 0 0 0 0 0
-0 0 0 0 0 0 0 0 0 0 0 0 0 0 0 0 0 0 0 0 -0 -0 -0 -0 0 0 -0 0 0 0 0 -0 0 0 0 0 0 0 0 0 0 0 0
0 0 0 0 0 0 0 0 0 0 0 0 0 0 0 0 0 -0 -0 -0 -0 -0 -0 -0 -0 -0 0 -0 0 0 0 -0 0 0 0 0 0 0 0 0 0 0 0
0 0 0 0 0 0 0 0 0 0 0 0 0 0 0 -0 -0 -0 -0 -0 0 0 -0 0 -0 0 0 0 0 0 0 0 0 0 0 0 0 0 0 0 0 0 0
0 0 0 0 0 0 -0 0 0 0 0 0 0 0 0 0 0 0 0 0 0 0 0 0 0 0 0 0 0 0 0 0 0 0 0 0 0 0 0 0 0 0 0
0 0 0 0 0 -0 0 0 0 0 0 0 0 0 0 0 0 0 0 0 0 0 0 0 0 0 0 0 0 0 0 0 0 0 0 0 0 0 0 0 0 0 0
0 0 0 0 -0 0 0 0 0 0 0 0 0 0 0 0 0 0 0 0 0 0 0 0 0 0 0 0 0 0 0 0 0 0 0 0 0 0 0 0 0 0 0
0 0 0 0 0 0 0 0 0 0 0 0 0 0 0 0 0 0 0 0 0 0 0 0 0 0 0 0 0 0 0 0 0 0 0 0 0 0 0 0 0 0 0
0 0 0 0 0 0 0 0 0 0 0 0 0 0 0 0 0 0 0 0 0 0 0 0 0 0 0 0 0 0 0 0 0 0 0 0 0 0 0 0 0 0 0
0 0 0 0 0 0 0 0 0 0 0 0 0 0 0 0 0 0 0 0 0 0 0 0 0 0 0 0 0 0 0 0 0 0 0 0 0 0 0 0 -0 -0 -0
Wind_Speed_500mb
35 36 23 14 53 34 26 25 30 27 25 31 34 42 46 46 45 45 43 41 45 42 41 41 45 45 43 38 28 31 43 37 31 31 37 24 20 17 20 4 8 7 16
39 34 32 25 49 35 33 27 29 29 35 38 38 38 43 44 43 41 38 35 36 36 32 31 34 35 32 25 13 13 18 13 26 39 28 19 14 13 5 7 10 9 14
40 40 33 24 41 35 31 32 37 36 38 38 33 35 35 36 36 36 34 29 23 20 17 17 10 10 16 20 20 23 24 32 18 29 27 22 11 7 6 6 1 8 5
42 40 40 36 43 29 31 38 37 36 33 33 31 31 28 29 28 24 19 14 5 6 13 20 25 23 24 28 35 33 40 35 30 30 22 21 12 16 10 9 10 5 9
40 38 35 33 43 23 40 34 32 32 28 27 27 26 24 21 16 7 5 16 19 26 29 30 33 38 32 38 42 35 36 32 28 28 22 21 16 12 5 2 3 9 11
41 40 33 30 32 30 36 28 28 23 22 20 19 19 20 18 12 15 21 22 29 26 35 40 45 50 33 35 45 33 37 40 25 12 22 23 19 10 6 7 1 14 12
38 33 31 27 17 33 27 19 15 15 15 16 19 19 25 25 18 15 15 17 22 23 24 25 29 37 39 37 46 29 34 26 29 25 28 17 12 7 8 10 5 2 4
31 29 27 18 30 26 17 8 10 14 16 17 19 19 17 21 17 28 38 31 31 37 39 35 33 41 50 43 33 25 25 27 29 25 19 17 12 12 7 5 3 11 5
28 27 25 18 22 13 3 11 17 18 21 21 23 21 21 29 29 31 29 32 33 34 31 29 27 31 21 31 35 36 34 34 30 28 26 24 25 13 4 14 14 14 11
22 20 11 18 9 4 13 22 24 23 28 29 33 34 32 36 30 32 41 36 30 29 29 37 37 29 34 32 31 27 28 22 19 27 27 28 30 30 32 13 12 14 12
17 15 22 7 7 18 28 28 27 30 32 47 41 33 28 27 23 24 19 29 31 28 32 33 33 33 41 35 28 33 34 31 25 28 28 27 22 25 34 29 24 23 15
14 10 1 18 29 35 37 40 41 48 47 39 36 39 37 32 26 30 32 31 32 36 40 45 46 41 40 35 33 33 30 27 29 32 24 25 25 29 27 32 33 32 29
10 9 27 38 42 50 56 48 46 41 38 37 33 36 32 36 53 49 49 48 50 47 48 47 43 43 38 38 32 31 30 31 31 30 29 28 23 19 23 31 44 43 39
13 35 47 49 57 51 39 35 39 37 35 35 34 33 30 37 39 35 36 40 40 36 38 38 38 37 32 30 33 35 35 37 34 30 26 25 28 26 29 28 34 41 52
42 53 57 60 39 51 52 44 42 38 35 36 40 37 40 45 46 40 33 34 32 40 41 39 39 36 34 37 38 38 40 31 30 28 31 34 29 28 33 32 34 41 55
62 62 60 49 43 50 55 57 51 47 45 44 45 45 49 45 43 47 47 41 36 40 39 43 42 42 43 39 39 43 44 39 38 33 38 36 34 38 41 39 40 45 47
66 68 60 49 50 54 52 52 53 52 49 52 51 51 52 51 48 46 45 32 44 43 45 44 42 46 45 44 43 40 47 44 40 43 42 38 41 47 50 52 54 53 53
73 53 48 47 48 48 45 43 41 41 42 44 43 39 42 43 39 32 35 39 39 41 47 47 43 46 46 47 45 45 48 45 56 55 56 47 49 54 61 69 75 77 74
57 42 46 47 42 43 43 42 42 40 39 37 34 38 45 48 47 47 44 44 43 42 46 49 44 40 42 40 46 49 50 47 53 57 56 58 61 67 76 78 84 82 77
34 50 48 47 42 42 40 39 37 36 37 37 40 38 35 36 41 44 46 45 45 44 43 42 48 43 45 40 40 47 45 48 53 54 49 62 58 74 75 78 76 71 76
53 49 49 45 41 39 37 35 37 40 42 45 45 45 42 42 44 45 46 47 46 44 43 42 41 45 46 40 42 39 43 44 50 51 54 45 47 68 60 50 50 49 51
49 48 45 43 41 41 41 41 42 43 45 46 46 47 47 47 48 49 49 48 46 45 44 44 41 38 43 44 41 48 41 42 47 46 50 46 49 45 43 45 50 52 51
47 46 44 44 45 45 42 41 41 42 42 43 43 44 46 49 50 49 49 49 49 48 45 46 44 44 37 40 44 48 46 41 38 45 44 46 50 48 44 45 46 44 48
45 45 49 45 42 42 42 43 43 44 43 44 45 46 47 47 48 50 48 47 47 48 47 51 55 51 46 42 41 51 48 45 39 38 41 41 46 46 46 47 46 47 47
49 46 45 44 43 45 44 42 42 42 43 44 46 46 45 44 46 46 46 47 49 50 50 48 51 57 57 55 50 47 50 52 47 41 40 42 44 44 44 44 44 44 41
46 45 44 43 42 41 42 41 41 41 43 44 44 42 42 42 43 44 44 46 47 47 47 49 54 56 57 58 56 51 47 47 46 42 40 40 41 40 40 41 40 40 42
Wind_Direction_500mb
338 316 333 333 347 347 347 344 351 355 333 309 304 307 308 309 308 303 300 296 288 286 284 280 278 276 268 264 248 221 220 220 216 190 179 166 187 163 237 232 252 300 289
326 317 288 317 339 339 341 330 345 347 333 325 320 312 310 310 309 308 309 303 296 294 287 276 274 265 262 256 192 175 180 159 177 159 158 153 160 182 164 199 196 199 275
319 312 297 312 321 324 323 328 337 341 335 329 321 318 321 324 319 313 313 312 306 296 286 279 254 195 176 152 139 146 94 108 111 114 118 113 120 135 156 183 261 201 144
313 308 306 297 318 314 323 327 332 337 331 326 327 329 331 332 327 323 329 321 302 134 132 127 119 119 125 124 117 106 102 107 108 118 132 132 135 147 148 209 240 137 150
305 301 300 306 304 323 326 321 330 332 334 337 341 348 351 356 13 30 110 123 119 117 112 113 115 105 102 109 113 116 113 130 125 116 124 144 139 120 156 198 181 215 159
301 294 296 302 305 314 315 320 326 341 355 6 18 26 45 66 106 108 106 111 102 100 108 107 109 107 112 117 114 117 110 99 115 183 122 90 88 91 99 51 89 134 156
292 289 289 298 297 313 313 314 342 11 29 50 63 75 93 98 93 84 79 98 102 102 110 112 104 107 105 102 106 97 103 112 98 109 105 105 121 126 100 52 111 12 76
294 287 283 280 297 312 304 356 43 61 66 73 91 98 98 88 71 74 73 73 82 89 88 90 82 88 105 112 110 108 106 122 111 114 130 99 90 133 100 46 276 192 160
296 298 295 272 305 296 34 75 84 87 92 91 89 83 90 103 95 82 66 64 78 79 88 109 95 131 136 118 110 106 100 103 98 87 87 71 55 37 156 69 56 148 118
293 320 250 318 315 99 102 104 99 95 94 92 93 89 77 95 89 75 83 93 88 81 84 99 110 85 89 97 114 112 116 110 108 73 73 72 55 25 32 52 155 127 132
276 252 305 323 110 114 111 104 104 102 95 79 80 82 98 87 78 94 53 87 88 100 93 88 90 87 83 89 99 99 96 95 88 70 80 85 62 39 34 59 77 92 97
232 284 172 117 120 116 104 96 92 85 84 86 87 77 67 64 61 66 77 79 89 96 95 90 86 88 95 82 89 92 96 97 102 92 68 58 47 55 47 54 66 71 64
220 126 122 127 116 106 97 92 88 88 86 83 77 72 68 70 73 80 80 86 84 81 86 88 85 88 79 79 76 86 86 82 72 74 70 67 65 68 63 70 66 69 72
136 131 130 119 108 92 85 99 94 88 85 79 71 67 63 77 76 72 78 85 86 82 75 81 85 84 89 76 76 66 78 72 73 72 70 71 82 75 88 88 86 82 74
136 132 123 114 97 107 102 92 93 84 85 82 86 79 75 76 77 78 77 69 71 80 81 77 74 71 73 78 71 69 73 73 68 63 78 84 79 85 90 91 94 99 95
135 130 118 106 105 101 101 97 92 93 91 90 92 82 79 82 85 83 79 82 75 87 74 69 67 65 64 71 68 65 72 65 57 74 77 80 85 96 96 95 98 99 101
132 119 108 108 107 107 104 100 96 96 89 82 86 89 89 89 88 82 79 81 70 65 66 64 62 64 67 63 76 63 78 64 67 75 79 81 97 101 101 96 95 97 97
125 115 116 116 113 109 108 107 100 97 89 81 82 82 87 82 74 71 82 75 76 74 73 70 62 58 63 64 69 63 77 58 69 75 71 84 97 103 101 99 96 93 95
111 115 119 119 117 111 107 104 100 95 90 85 80 74 71 70 66 66 67 69 68 66 67 66 61 62 59 57 66 76 74 63 71 85 83 82 87 101 98 92 85 80 87
107 124 121 117 113 110 106 102 96 92 88 83 76 73 72 68 65 64 64 65 66 65 64 64 64 63 59 63 70 78 71 76 80 76 83 74 90 90 93 84 76 80 75
122 120 118 115 112 108 104 100 97 93 87 84 79 78 76 72 69 67 65 64 63 63 62 64 64 65 62 65 72 76 79 76 83 79 85 83 77 78 79 81 85 90 79
119 120 119 114 110 107 103 100 97 93 90 86 80 72 71 71 69 66 64 62 63 64 63 63 60 63 68 73 72 81 83 75 80 78 83 82 85 88 87 83 82 84 93
123 122 116 114 112 106 104 102 100 98 93 87 83 77 72 69 67 65 64 63 62 63 63 67 64 63 66 80 87 89 81 77 78 84 85 82 85 85 85 86 84 85 92
125 122 116 113 114 112 109 107 104 99 94 89 85 79 74 71 69 68 66 66 66 65 64 63 65 69 70 75 78 89 85 84 81 85 88 86 85 83 83 83 85 87 88
122 121 120 119 117 113 109 108 104 99 95 90 85 82 79 76 73 70 70 68 66 65 66 66 65 67 73 81 88 93 92 87 85 85 85 84 86 84 83 84 84 85 86
124 122 121 120 119 117 113 110 106 102 96 91 88 85 83 80 77 74 71 69 69 69 68 65 67 74 79 83 86 88 90 92 90 88 83 87 87 86 85 85 85 86 85
Wind_Speed_850mb
35 36 23 14 53 34 26 25 30 27 25 31 34 42 46 46 45 45 43 41 45 42 41 41 45 45 43 38 28 31 43 37 31 31 37 24 20 17 20 4 8 7 16
39 34 32 25 49 35 33 27 29 29 35 38 38 38 43 44 43 41 38 35 36 36 32 31 34 35 32 25 13 13 18 13 26 39 28 19 14 13 5 7 10 9 14
40 40 33 24 41 35 31 32 37 36 38 38 33 35 35 36 36 36 34 29 23 20 17 17 10 10 16 20 20 23 24 32 18 29 27 22 11 7 6 6 1 8 5
42 40 40 36 43 29 31 38 37 36 33 33 31 31 28 29 28 24 19 14 5 6 13 20 25 23 24 28 35 33 40 35 30 30 22 21 12 16 10 9 10 5 9
40 38 35 33 43 23 40 34 32 32 28 27 27 26 24 21 16 7 5 16 19 26 29 30 33 38 32 38 42 35 36 32 28 28 22 21 16 12 5 2 3 9 11
41 40 33 30 32 30 36 28 28 23 22 20 19 19 20 18 12 15 21 22 29 26 35 40 45 50 33 35 45 33 37 40 25 12 22 23 19 10 6 7 1 14 12
38 33 31 27 17 33 27 19 15 15 15 16 19 19 25 25 18 15 15 17 22 23 24 25 29 37 39 37 46 29 34 26 29 25 28 17 12 7 8 10 5 2 4
31 29 27 18 30 26 17 8 10 14 16 17 19 19 17 21 17 28 38 31 31 37 39 35 33 41 50 43 33 25 25 27 29 25 19 17 12 12 7 5 3 11 5
28 27 25 18 22 13 3 11 17 18 21 21 23 21 21 29 29 31 29 32 33 34 31 29 27 31 21 31 35 36 34 34 30 28 26 24 25 13 4 14 14 14 11
22 20 11 18 9 4 13 22 24 23 28 29 33 34 32 36 30 32 41 36 30 29 29 37 37 29 34 32 31 27 28 22 19 27 27 28 30 30 32 13 12 14 12
17 15 22 7 7 18 28 28 27 30 32 47 41 33 28 27 23 24 19 29 31 28 32 33 33 33 41 35 28 33 34 31 25 28 28 27 22 25 34 29 24 23 15
14 10 1 18 29 35 37 40 41 48 47 39 36 39 37 32 26 30 32 31 32 36 40 45 46 41 40 35 33 33 30 27 29 32 24 25 25 29 27 32 33 32 29
10 9 27 38 42 50 56 48 46 41 38 37 33 36 32 36 53 49 49 48 50 47 48 47 43 43 38 38 32 31 30 31 31 30 29 28 23 19 23 31 44 43 39
13 35 47 49 57 51 39 35 39 37 35 35 34 33 30 37 39 35 36 40 40 36 38 38 38 37 32 30 33 35 35 37 34 30 26 25 28 26 29 28 34 41 52
42 53 57 60 39 51 52 44 42 38 35 36 40 37 40 45 46 40 33 34 32 40 41 39 39 36 34 37 38 38 40 31 30 28 31 34 29 28 33 32 34 41 55
62 62 60 49 43 50 55 57 51 47 45 44 45 45 49 45 43 47 47 41 36 40 39 43 42 42 43 39 39 43 44 39 38 33 38 36 34 38 41 39 40 45 47
66 68 60 49 50 54 52 52 53 52 49 52 51 51 52 51 48 46 45 32 44 43 45 44 42 46 45 44 43 40 47 44 40 43 42 38 41 47 50 52 54 53 53
73 53 48 47 48 48 45 43 41 41 42 44 43 39 42 43 39 32 35 39 39 41 47 47 43 46 46 47 45 45 48 45 56 55 56 47 49 54 61 69 75 77 74
57 42 46 47 42 43 43 42 42 40 39 37 34 38 45 48 47 47 44 44 43 42 46 49 44 40 42 40 46 49 50 47 53 57 56 58 61 67 76 78 84 82 77
34 50 48 47 42 42 40 39 37 36 37 37 40 38 35 36 41 44 46 45 45 44 43 42 48 43 45 40 40 47 45 48 53 54 49 62 58 74 75 78 76 71 76
53 49 49 45 41 39 37 35 37 40 42 45 45 45 42 42 44 45 46 47 46 44 43 42 41 45 46 40 42 39 43 44 50 51 54 45 47 68 60 50 50 49 51
49 48 45 43 41 41 41 41 42 43 45 46 46 47 47 47 48 49 49 48 46 45 44 44 41 38 43 44 41 48 41 42 47 46 50 46 49 45 43 45 50 52 51
47 46 44 44 45 45 42 41 41 42 42 43 43 44 46 49 50 49 49 49 49 48 45 46 44 44 37 40 44 48 46 41 38 45 44 46 50 48 44 45 46 44 48
45 45 49 45 42 42 42 43 43 44 43 44 45 46 47 47 48 50 48 47 47 48 47 51 55 51 46 42 41 51 48 45 39 38 41 41 46 46 46 47 46 47 47
49 46 45 44 43 45 44 42 42 42 43 44 46 46 45 44 46 46 46 47 49 50 50 48 51 57 57 55 50 47 50 52 47 41 40 42 44 44 44 44 44 44 41
46 45 44 43 42 41 42 41 41 41 43 44 44 42 42 42 43 44 44 46 47 47 47 49 54 56 57 58 56 51 47 47 46 42 40 40 41 40 40 41 40 40 42
Wind_Direction_850mb
338 316 333 333 347 347 347 344 351 355 333 309 304 307 308 309 308 303 300 296 288 286 284 280 278 276 268 264 248 221 220 220 216 190 179 166 187 163 237 232 252 300 289
326 317 288 317 339 339 341 330 345 347 333 325 320 312 310 310 309 308 309 303 296 294 287 276 274 265 262 256 192 175 180 159 177 159 158 153 160 182 164 199 196 199 275
319 312 297 312 321 324 323 328 337 341 335 329 321 318 321 324 319 313 313 312 306 296 286 279 254 195 176 152 139 146 94 108 111 114 118 113 120 135 156 183 261 201 144
313 308 306 297 318 314 323 327 332 337 331 326 327 329 331 332 327 323 329 321 302 134 132 127 119 119 125 124 117 106 102 107 108 118 132 132 135 147 148 209 240 137 150
305 301 300 306 304 323 326 321 330 332 334 337 341 348 351 356 13 30 110 123 119 117 112 113 115 105 102 109 113 116 113 130 125 116 124 144 139 120 156 198 181 215 159
301 294 296 302 305 314 315 320 326 341 355 6 18 26 45 66 106 108 106 111 102 100 108 107 109 107 112 117 114 117 110 99 115 183 122 90 88 91 99 51 89 134 156
292 289 289 298 297 313 313 314 342 11 29 50 63 75 93 98 93 84 79 98 102 102 110 112 104 107 105 102 106 97 103 112 98 109 105 105 121 126 100 52 111 12 76
294 287 283 280 297 312 304 356 43 61 66 73 91 98 98 88 71 74 73 73 82 89 88 90 82 88 105 112 110 108 106 122 111 114 130 99 90 133 100 46 276 192 160
296 298 295 272 305 296 34 75 84 87 92 91 89 83 90 103 95 82 66 64 78 79 88 109 95 131 136 118 110 106 100 103 98 87 87 71 55 37 156 69 56 148 118
293 320 250 318 315 99 102 104 99 95 94 92 93 89 77 95 89 75 83 93 88 81 84 99 110 85 89 97 114 112 116 110 108 73 73 72 55 25 32 52 155 127 132
276 252 305 323 110 114 111 104 104 102 95 79 80 82 98 87 78 94 53 87 88 100 93 88 90 87 83 89 99 99 96 95 88 70 80 85 62 39 34 59 77 92 97
232 284 172 117 120 116 104 96 92 85 84 86 87 77 67 64 61 66 77 79 89 96 95 90 86 88 95 82 89 92 96 97 102 92 68 58 47 55 47 54 66 71 64
220 126 122 127 116 106 97 92 88 88 86 83 77 72 68 70 73 80 80 86 84 81 86 88 85 88 79 79 76 86 86 82 72 74 70 67 65 68 63 70 66 69 72
136 131 130 119 108 92 85 99 94 88 85 79 71 67 63 77 76 72 78 85 86 82 75 81 85 84 89 76 76 66 78 72 73 72 70 71 82 75 88 88 86 82 74
136 132 123 114 97 107 102 92 93 84 85 82 86 79 75 76 77 78 77 69 71 80 81 77 74 71 73 78 71 69 73 73 68 63 78 84 79 85 90 91 94 99 95
135 130 118 106 105 101 101 97 92 93 91 90 92 82 79 82 85 83 79 82 75 87 74 69 67 65 64 71 68 65 72 65 57 74 77 80 85 96 96 95 98 99 101
132 119 108 108 107 107 104 100 96 96 89 82 86 89 89 89 88 82 79 81 70 65 66 64 62 64 67 63 76 63 78 64 67 75 79 81 97 101 101 96 95 97 97
125 115 116 116 113 109 108 107 100 97 89 81 82 82 87 82 74 71 82 75 76 74 73 70 62 58 63 64 69 63 77 58 69 75 71 84 97 103 101 99 96 93 95
111 115 119 119 117 111 107 104 100 95 90 85 80 74 71 70 66 66 67 69 68 66 67 66 61 62 59 57 66 76 74 63 71 85 83 82 87 101 98 92 85 80 87
107 124 121 117 113 110 106 102 96 92 88 83 76 73 72 68 65 64 64 65 66 65 64 64 64 63 59 63 70 78 71 76 80 76 83 74 90 90 93 84 76 80 75
122 120 118 115 112 108 104 100 97 93 87 84 79 78 76 72 69 67 65 64 63 63 62 64 64 65 62 65 72 76 79 76 83 79 85 83 77 78 79 81 85 90 79
119 120 119 114 110 107 103 100 97 93 90 86 80 72 71 71 69 66 64 62 63 64 63 63 60 63 68 73 72 81 83 75 80 78 83 82 85 88 87 83 82 84 93
123 122 116 114 112 106 104 102 100 98 93 87 83 77 72 69 67 65 64 63 62 63 63 67 64 63 66 80 87 89 81 77 78 84 85 82 85 85 85 86 84 85 92
125 122 116 113 114 112 109 107 104 99 94 89 85 79 74 71 69 68 66 66 66 65 64 63 65 69 70 75 78 89 85 84 81 85 88 86 85 83 83 83 85 87 88
122 121 120 119 117 113 109 108 104 99 95 90 85 82 79 76 73 70 70 68 66 65 66 66 65 67 73 81 88 93 92 87 85 85 85 84 86 84 83 84 84 85 86
124 122 121 120 119 117 113 110 106 102 96 91 88 85 83 80 77 74 71 69 69 69 68 65 67 74 79 83 86 88 90 92 90 88 83 87 87 86 85 85 85 86 85